EW7246 Weather Reports


time (UTC)temp
F
wind
direction
speed
knots
gust
knots
rain 1hr
in
rain 24hr
in
rain mn
in
humidity
%
barometer
mb
20260507170056 66 360 8.7 16.5 0.00 0.00 0.00 30 1010.0
20260507164600 65 360 11.3 14.8 0.00 0.00 0.00 35 1010.0
20260507163047 64 360 9.6 15.6 0.00 0.00 0.00 38 1010.0
20260507161551 62 360 8.7 14.8 0.00 0.00 0.00 41 1010.1
20260507160058 60 360 10.4 14.8 0.00 0.00 0.00 43 1010.3
20260507154536 58 360 11.3 16.5 0.00 0.00 0.00 46 1010.3
20260507153033 57 360 10.4 17.4 0.00 0.00 0.00 48 1010.5
20260507151527 56 360 10.4 14.8 0.00 0.00 0.00 50 1010.5
20260507150027 54 360 10.4 14.8 0.00 0.00 0.00 52 1010.6
20260507144528 53 360 10.4 13.9 0.00 0.00 0.00 55 1010.5
20260507143014 51 360 10.4 15.6 0.00 0.00 0.00 57 1010.5
20260507141512 50 360 11.3 16.5 0.00 0.00 0.00 57 1010.5
20260507140009 49 360 11.3 17.4 0.00 0.00 0.00 61 1010.6
20260507134504 48 360 9.6 13.0 0.00 0.00 0.00 65 1010.5
20260507133108 46 360 7.8 13.0 0.00 0.00 0.00 70 1010.5
20260507131557 44 360 5.2 10.4 0.00 0.00 0.00 72 1010.4
20260507130050 42 360 3.5 9.6 0.00 0.00 0.00 76 1010.5
20260507124546 41 360 5.2 10.4 0.00 0.00 0.00 79 1010.5
20260507123045 39 360 4.3 7.8 0.00 0.00 0.00 80 1010.2
20260507121539 38 360 6.1 9.6 0.00 0.00 0.00 81 1010.3
20260507120035 38 360 1.7 5.2 0.00 0.00 0.00 79 1010.3
20260507114533 38 360 3.5 7.8 0.00 0.00 0.00 79 1010.3
20260507113031 38 360 4.3 8.7 0.00 0.00 0.00 79 1010.3
20260507111536 38 360 5.2 7.8 0.00 0.00 0.00 79 1010.4
20260507110032 38 360 4.3 7.8 0.00 0.00 0.00 79 1010.7
20260507104529 38 360 2.6 4.3 0.00 0.00 0.00 76 1010.8
20260507103026 38 360 1.7 3.5 0.00 0.00 0.00 76 1010.9
20260507101522 38 360 2.6 7.8 0.00 0.00 0.00 76 1011.0
20260507100023 38 360 4.3 7.8 0.00 0.00 0.00 75 1011.1
20260507094523 38 360 2.6 5.2 0.00 0.00 0.00 75 1011.1
20260507093017 39 360 3.5 8.7 0.00 0.00 0.00 75 1011.2
20260507091515 39 360 6.1 10.4 0.00 0.00 0.00 74 1011.3
20260507090014 40 360 7.8 15.6 0.00 0.00 0.00 74 1011.3
20260507084515 40 360 9.6 14.8 0.00 0.00 0.00 73 1011.4
20260507083010 40 360 13.0 19.1 0.00 0.00 0.00 72 1011.3
20260507081522 41 360 12.2 20.0 0.00 0.00 0.00 73 1011.5
20260507080011 40 360 13.0 19.1 0.00 0.00 0.00 74 1011.8
20260507074504 40 360 11.3 19.1 0.00 0.00 0.00 74 1012.1
20260507073100 40 360 10.4 18.2 0.00 0.00 0.00 73 1012.5
20260507071604 41 360 11.3 17.4 0.00 0.00 0.00 72 1012.8
20260507070056 41 360 11.3 19.1 0.00 0.00 0.00 71 1012.8
20260507064607 42 360 12.2 17.4 0.00 0.00 0.00 70 1012.7
20260507063053 42 360 12.2 16.5 0.00 0.00 0.00 69 1012.9
20260507061545 42 360 10.4 17.4 0.00 0.00 0.00 69 1013.1
20260507060040 42 360 8.7 14.8 0.00 0.00 0.00 68 1013.2
20260507054541 42 360 7.8 13.9 0.00 0.00 0.00 67 1013.2
20260507053036 43 360 8.7 13.0 0.00 0.00 0.00 66 1013.6
20260507051535 43 360 8.7 16.5 0.00 0.00 0.00 64 1013.7
20260507050039 44 360 11.3 15.6 0.00 0.00 0.00 63 1013.8
20260507044534 44 360 9.6 13.9 0.00 0.00 0.00 62 1013.9
20260507043030 44 360 8.7 14.8 0.00 0.00 0.00 61 1014.2
20260507041546 45 360 10.4 16.5 0.00 0.00 0.00 60 1014.3
20260507040028 44 360 10.4 15.6 0.00 0.00 0.00 60 1014.5
20260507034527 44 360 7.0 10.4 0.00 0.00 0.00 61 1014.8
20260507033031 45 360 7.8 10.4 0.00 0.00 0.00 59 1014.8
20260507031526 45 360 7.0 12.2 0.00 0.00 0.00 58 1014.8
20260507030025 46 360 7.8 10.4 0.00 0.00 0.00 57 1014.8
20260507024524 46 360 6.1 8.7 0.00 0.00 0.00 54 1014.7
20260507023025 47 360 5.2 8.7 0.00 0.00 0.00 52 1014.8
20260507021523 49 360 4.3 7.0 0.00 0.00 0.00 48 1014.7
20260507020027 50 360 5.2 9.6 0.00 0.00 0.00 44 1014.6
20260507014544 51 360 5.2 11.3 0.00 0.00 0.00 42 1014.6
20260507013038 52 360 7.0 9.6 0.00 0.00 0.00 40 1014.6
20260507011532 53 360 5.2 8.7 0.00 0.00 0.00 40 1014.7
20260507010019 53 360 7.8 11.3 0.00 0.00 0.00 37 1014.7
20260507004520 54 360 7.0 11.3 0.00 0.00 0.00 37 1014.8
20260507003017 54 360 5.2 9.6 0.00 0.00 0.00 34 1014.9
20260507001514 54 360 6.1 10.4 0.00 0.00 0.00 34 1015.2
20260507000023 55 360 9.6 14.8 0.00 0.00 0.00 33 1015.3
20260506234512 55 360 7.0 10.4 0.00 0.00 0.00 34 1015.4
20260506233011 54 360 7.8 12.2 0.00 0.00 0.00 35 1015.5
20260506231509 55 360 7.0 13.0 0.00 0.00 0.00 34 1015.6
20260506230008 54 360 6.1 10.4 0.00 0.00 0.00 34 1015.6
20260506224508 54 360 7.0 12.2 0.00 0.00 0.00 35 1015.7
20260506223008 55 360 6.1 12.2 0.00 0.00 0.00 33 1015.9
20260506221504 55 360 10.4 14.8 0.00 0.00 0.00 32 1016.1
20260506220004 55 360 8.7 14.8 0.00 0.00 0.00 33 1016.3
20260506214502 55 360 8.7 14.8 0.00 0.00 0.00 31 1016.5
20260506213059 55 360 8.7 16.5 0.00 0.00 0.00 32 1016.7
20260506211559 55 360 10.4 15.6 0.00 0.00 0.00 33 1017.0
20260506210111 54 360 9.6 17.4 0.00 0.00 0.00 35 1017.4
20260506204554 54 360 7.0 16.5 0.00 0.00 0.00 36 1017.6
20260506203055 53 360 7.0 15.6 0.00 0.00 0.00 36 1017.8
20260506201551 53 360 9.6 15.6 0.00 0.00 0.00 34 1017.8
20260506200125 53 360 7.8 20.9 0.00 0.00 0.00 35 1018.1
20260506194547 53 360 7.0 13.9 0.00 0.00 0.00 32 1018.1
20260506193046 52 360 8.7 13.9 0.00 0.00 0.00 36 1018.2
20260506191547 52 360 8.7 13.9 0.00 0.00 0.00 36 1018.4
20260506190045 53 360 4.3 13.9 0.00 0.00 0.00 39 1018.6
20260506184541 52 360 7.0 9.6 0.00 0.00 0.00 39 1018.7
20260506183039 52 360 5.2 9.6 0.00 0.00 0.00 41 1018.9
20260506181539 52 360 3.5 11.3 0.00 0.00 0.00 45 1019.0
20260506180045 50 360 7.0 10.4 0.00 0.00 0.00 44 1019.3
20260506174533 49 360 1.7 7.0 0.00 0.00 0.00 44 1019.5
20260506173032 49 360 3.5 8.7 0.00 0.00 0.00 45 1019.6
20260506171545 49 360 2.6 8.7 0.00 0.00 0.00 44 1019.6